When you browse on this site, cookies collect data to enhance your experience and personalize the content and advertising you see.
Visit our Privacy Policy to learn more. By continuing to use the site, you agree to this use of cookies and data.
  • In United Kingdom
  • List of Countries
  • For 7 days
  • Water Temperature
  • Satellite Maps
  • Weather Map
  • Weather Widgets
  • user-avatar
    Login

    Hourly Weather Coleraine

    Today, 25 June, Tuesday

    Time Temperature Precipitation Wind Pressure Humidity
    00:00 +12°C° 0 mm 2 mps 763 mmHg 94%
    01:00 +12°C° 0 mm 2 mps 763 mmHg 95%
    02:00 +12°C° 0 mm 2 mps 763 mmHg 95%
    03:00 +12°C° 0 mm 2 mps 763 mmHg 96%
    04:00 +12°C° 0 mm 2 mps 763 mmHg 95%
    05:00 +13°C° 0 mm 2 mps 763 mmHg 94%
    06:00 +13°C° 0 mm 2 mps 763 mmHg 93%
    07:00 +14°C° 0 mm 2 mps 764 mmHg 92%
    08:00 +15°C° 0 mm 2 mps 764 mmHg 90%
    09:00 +16°C° 0 mm 2 mps 765 mmHg 88%
    10:00 +16°C° 0 mm 2 mps 765 mmHg 88%
    11:00 +16°C° 0 mm 2 mps 765 mmHg 88%
    12:00 +17°C° 0 mm 2 mps 765 mmHg 88%
    13:00 +17°C° 0.1 mm 2 mps 765 mmHg 87%
    14:00 +18°C° 0.1 mm 3 mps 766 mmHg 86%
    15:00 +18°C° 0.1 mm 3 mps 766 mmHg 85%
    16:00 +18°C° 0.1 mm 3 mps 766 mmHg 85%
    17:00 +18°C° 0.1 mm 3 mps 766 mmHg 84%
    18:00 +18°C° 0.1 mm 3 mps 767 mmHg 84%
    19:00 +17°C° 0 mm 3 mps 767 mmHg 87%
    20:00 +15°C° 0 mm 2 mps 768 mmHg 90%
    21:00 +14°C° 0 mm 2 mps 768 mmHg 93%
    22:00 +14°C° 0 mm 1 mps 768 mmHg 92%
    23:00 +14°C° 0 mm 1 mps 769 mmHg 92%

    Tomorrow, 26 June, Wednesday

    Time Temperature Precipitation Wind Pressure Humidity
    00:00 +14°C° 0 mm 1 mps 769 mmHg 91%
    01:00 +14°C° 0 mm 1 mps 769 mmHg 92%
    02:00 +13°C° 0 mm 1 mps 770 mmHg 92%
    03:00 +13°C° 0 mm 1 mps 770 mmHg 93%
    04:00 +13°C° 0 mm 1 mps 770 mmHg 92%
    05:00 +14°C° 0 mm 1 mps 770 mmHg 92%
    06:00 +14°C° 0 mm 1 mps 771 mmHg 91%
    07:00 +15°C° 0 mm 1 mps 771 mmHg 89%
    08:00 +16°C° 0 mm 1 mps 771 mmHg 86%
    09:00 +17°C° 0 mm 2 mps 772 mmHg 83%
    10:00 +17°C° 0 mm 2 mps 772 mmHg 81%
    11:00 +18°C° 0 mm 3 mps 772 mmHg 80%
    12:00 +18°C° 0 mm 3 mps 772 mmHg 78%
    13:00 +18°C° 0 mm 4 mps 772 mmHg 77%
    14:00 +17°C° 0 mm 4 mps 772 mmHg 76%
    15:00 +17°C° 0 mm 4 mps 772 mmHg 74%
    16:00 +15°C° 0 mm 4 mps 772 mmHg 74%
    17:00 +15°C° 0 mm 4 mps 772 mmHg 74%
    18:00 +14°C° 0 mm 4 mps 772 mmHg 74%
    19:00 +13°C° 0 mm 3 mps 772 mmHg 81%
    20:00 +12°C° 0 mm 3 mps 772 mmHg 87%
    21:00 +12°C° 0 mm 2 mps 773 mmHg 93%
    22:00 +10°C° 0 mm 2 mps 773 mmHg 94%
    23:00 +10°C° 0 mm 2 mps 773 mmHg 95%

    Day after tomorrow, 27 June, Thursday

    Time Temperature Precipitation Wind Pressure Humidity
    00:00 +10°C° 0 mm 2 mps 773 mmHg 95%
    01:00 +10°C° 0 mm 2 mps 773 mmHg 95%
    02:00 +10°C° 0 mm 2 mps 772 mmHg 95%
    03:00 +10°C° 0 mm 2 mps 772 mmHg 95%
    04:00 +10°C° 0 mm 2 mps 772 mmHg 95%
    05:00 +12°C° 0 mm 2 mps 772 mmHg 94%
    06:00 +13°C° 0 mm 1 mps 772 mmHg 93%
    07:00 +14°C° 0 mm 1 mps 772 mmHg 88%
    08:00 +16°C° 0 mm 1 mps 772 mmHg 83%
    09:00 +19°C° 0 mm 1 mps 772 mmHg 78%
    10:00 +20°C° 0 mm 1 mps 772 mmHg 75%
    11:00 +19°C° 0 mm 2 mps 771 mmHg 73%
    12:00 +20°C° 0 mm 2 mps 771 mmHg 70%
    13:00 +20°C° 0 mm 2 mps 771 mmHg 70%
    14:00 +21°C° 0 mm 3 mps 771 mmHg 69%
    15:00 +21°C° 0 mm 3 mps 770 mmHg 69%
    16:00 +20°C° 0 mm 3 mps 770 mmHg 71%
    17:00 +20°C° 0 mm 3 mps 769 mmHg 73%
    18:00 +20°C° 0 mm 3 mps 769 mmHg 76%
    19:00 +18°C° 0 mm 3 mps 769 mmHg 79%
    20:00 +17°C° 0 mm 3 mps 769 mmHg 82%
    21:00 +16°C° 0 mm 3 mps 769 mmHg 85%
    22:00 +16°C° 0 mm 3 mps 768 mmHg 85%
    23:00 +14°C° 0 mm 3 mps 768 mmHg 86%

    28 June, Friday

    Time Temperature Precipitation Wind Pressure Humidity
    00:00 +14°C° 0 mm 3 mps 768 mmHg 87%
    01:00 +14°C° 0 mm 3 mps 768 mmHg 87%
    02:00 +13°C° 0 mm 4 mps 768 mmHg 87%
    03:00 +13°C° 0 mm 4 mps 767 mmHg 87%
    04:00 +14°C° 0 mm 5 mps 767 mmHg 86%
    05:00 +14°C° 0 mm 5 mps 766 mmHg 84%
    06:00 +14°C° 0 mm 6 mps 766 mmHg 83%
    07:00 +15°C° 0 mm 6 mps 766 mmHg 80%
    08:00 +16°C° 0 mm 6 mps 765 mmHg 78%
    09:00 +17°C° 0 mm 7 mps 765 mmHg 75%
    10:00 +17°C° 0 mm 7 mps 765 mmHg 74%
    11:00 +18°C° 0 mm 7 mps 765 mmHg 72%
    12:00 +20°C° 0 mm 7 mps 764 mmHg 71%
    13:00 +20°C° 0 mm 7 mps 764 mmHg 71%
    14:00 +20°C° 0 mm 7 mps 763 mmHg 71%
    15:00 +20°C° 0 mm 7 mps 763 mmHg 70%
    16:00 +20°C° 0.3 mm 7 mps 762 mmHg 74%
    17:00 +19°C° 0.3 mm 6 mps 762 mmHg 78%
    18:00 +19°C° 0.3 mm 5 mps 762 mmHg 81%
    19:00 +17°C° 0.3 mm 5 mps 761 mmHg 83%
    20:00 +18°C° 0.3 mm 4 mps 761 mmHg 85%
    21:00 +17°C° 0.3 mm 3 mps 761 mmHg 86%
    22:00 +17°C° 0 mm 3 mps 761 mmHg 87%
    23:00 +17°C° 0 mm 3 mps 760 mmHg 87%

    29 June, Saturday

    Time Temperature Precipitation Wind Pressure Humidity
    00:00 +17°C° 0 mm 3 mps 760 mmHg 88%
    01:00 +17°C° 0 mm 3 mps 759 mmHg 90%
    02:00 +16°C° 0 mm 3 mps 759 mmHg 93%
    03:00 +16°C° 0 mm 3 mps 758 mmHg 95%
    04:00 +16°C° 0 mm 3 mps 758 mmHg 95%
    05:00 +16°C° 0 mm 3 mps 758 mmHg 94%
    06:00 +16°C° 0 mm 3 mps 758 mmHg 94%
    07:00 +17°C° 0 mm 3 mps 758 mmHg 90%
    08:00 +18°C° 0 mm 3 mps 757 mmHg 86%
    09:00 +19°C° 0 mm 3 mps 757 mmHg 82%
    10:00 +20°C° 0 mm 3 mps 757 mmHg 78%
    11:00 +20°C° 0 mm 3 mps 757 mmHg 74%
    12:00 +21°C° 0 mm 3 mps 757 mmHg 69%
    13:00 +20°C° 0.3 mm 4 mps 756 mmHg 74%
    14:00 +20°C° 0.3 mm 4 mps 756 mmHg 78%
    15:00 +19°C° 0.3 mm 4 mps 756 mmHg 82%
    16:00 +19°C° 0.5 mm 3 mps 756 mmHg 86%
    17:00 +18°C° 0.5 mm 2 mps 755 mmHg 89%
    18:00 +18°C° 0.5 mm 1 mps 755 mmHg 92%
    19:00 +16°C° 0.1 mm 2 mps 755 mmHg 92%
    20:00 +16°C° 0.1 mm 2 mps 755 mmHg 92%
    21:00 +14°C° 0.1 mm 3 mps 755 mmHg 92%
    22:00 +14°C° 0 mm 3 mps 756 mmHg 92%
    23:00 +14°C° 0 mm 3 mps 756 mmHg 93%

    30 June, Sunday

    Time Temperature Precipitation Wind Pressure Humidity
    00:00 +13°C° 0 mm 3 mps 756 mmHg 94%
    01:00 +13°C° 0.1 mm 3 mps 756 mmHg 94%
    02:00 +13°C° 0.1 mm 4 mps 756 mmHg 94%
    03:00 +13°C° 0.1 mm 4 mps 756 mmHg 95%
    04:00 +13°C° 0.1 mm 4 mps 756 mmHg 94%
    05:00 +13°C° 0.1 mm 4 mps 756 mmHg 94%
    06:00 +13°C° 0.1 mm 4 mps 757 mmHg 94%
    07:00 +13°C° 0.1 mm 5 mps 757 mmHg 92%
    08:00 +13°C° 0.1 mm 6 mps 758 mmHg 90%
    09:00 +13°C° 0.1 mm 6 mps 758 mmHg 88%
    10:00 +14°C° 0.1 mm 6 mps 759 mmHg 85%
    11:00 +14°C° 0.1 mm 6 mps 759 mmHg 81%
    12:00 +14°C° 0.1 mm 6 mps 759 mmHg 78%
    13:00 +14°C° 0.1 mm 6 mps 760 mmHg 78%
    14:00 +14°C° 0.1 mm 6 mps 760 mmHg 79%
    15:00 +14°C° 0.1 mm 6 mps 760 mmHg 79%
    16:00 +14°C° 0 mm 6 mps 760 mmHg 79%
    17:00 +13°C° 0 mm 6 mps 760 mmHg 79%
    18:00 +13°C° 0 mm 6 mps 760 mmHg 79%
    19:00 +13°C° 0 mm 5 mps 761 mmHg 82%
    20:00 +12°C° 0 mm 5 mps 761 mmHg 85%
    21:00 +10°C° 0 mm 5 mps 761 mmHg 87%
    22:00 +10°C° 0 mm 5 mps 761 mmHg 89%
    23:00 +10°C° 0 mm 5 mps 761 mmHg 91%
    Show more